Weather History for Pueblo, CO

Change the Weather History Date:

Tuesday, November 20, 2012

  Actual Average Record
Temperature  
Mean Temperature 47 °F 37 °F  
Max Temperature 69 °F 54 °F 78 °F (1955)
Min Temperature 24 °F 21 °F -9 °F (1906)
Degree Days  
Heating Degree Days 18 28  
Month to date heating degree days 406 468  
Since 1 July heating degree days 896 978  
Cooling Degree Days 0 0  
Month to date cooling degree days 0 0  
Year to date cooling degree days 1322 897  
Moisture  
Dew Point 13 °F    
Average Humidity 36    
Maximum Humidity 60    
Minimum Humidity 11    
Precipitation  
Precipitation 0.00 in 0.02 in 0.34 in (1992)
Month to date precipitation T 0.32  
Year to date precipitation 4.70 12.04  
Snow  
Snow 0.00 in 0.10 in 5.20 in (1992)
Month to date snowfall T 2.6  
Since 1 July snowfall 1.6 4.2  
Since 1 September snowfall 1.6 4.2  
Snow Depth 0.00 in    
Sea Level Pressure  
Sea Level Pressure 30.17 in    
Wind  
Wind Speed 5 mph (West)    
Max Wind Speed 15 mph    
Max Gust Speed 16 mph    
Visibility 10 miles    
Events      
T = Trace of Precipitation, MM = Missing Value Source: NWS Daily Summary

Daily Weather History Graph

Daily Weather History Graph

Search for Another Location

Airport:

Trip Planner

Search our weather history database for the weather conditions in past years. The results will help you decide how hot, cold, wet, or windy it might be!

Date:

Astronomy

Nov. 20, 2012 Rise Set
Actual Time 6:45 AM MST 4:41 PM MST
Civil Twilight 6:16 AM MST 5:10 PM MST
Nautical Twilight 5:44 AM MST 5:42 PM MST
Astronomical Twilight 5:12 AM MST 6:14 PM MST
Moon 12:23 PM MST (11/20) No Moon Set
Length of Visible Light 10h 53m
Length of Day
9h 56m
First Quarter, 52% of the Moon is Illuminated
Nov 20
First Quarter
Nov 28
Full
Dec 6
Last Quarter
Dec 13
New
Dec 19
First Quarter

Hourly Weather History & Observations

Time (MST) Temp. Windchill Dew Point Humidity Pressure Visibility Wind Dir Wind Speed Gust Speed Precip Events Conditions
12:53 AM 28.9 °F 25.2 °F 14.0 °F 54% 30.20 in 10.0 mi West 3.5 mph - N/A   Clear
1:53 AM 28.9 °F - 12.9 °F 51% 30.20 in 10.0 mi Calm Calm - N/A   Clear
2:53 AM 25.0 °F - 10.9 °F 55% 30.22 in 10.0 mi Calm Calm - N/A   Clear
3:53 AM 27.0 °F 21.6 °F 12.0 °F 53% 30.22 in 10.0 mi NNW 4.6 mph - N/A   Clear
4:53 AM 26.1 °F 21.9 °F 12.9 °F 58% 30.25 in 10.0 mi West 3.5 mph - N/A   Clear
5:53 AM 26.1 °F 19.4 °F 12.9 °F 58% 30.27 in 10.0 mi West 5.8 mph - N/A   Clear
6:53 AM 24.1 °F 19.7 °F 12.0 °F 60% 30.30 in 10.0 mi WNW 3.5 mph - N/A   Clear
7:53 AM 33.1 °F 26.1 °F 16.0 °F 50% 30.30 in 10.0 mi WSW 8.1 mph - N/A   Clear
8:53 AM 43.0 °F 39.5 °F 16.0 °F 34% 30.28 in 10.0 mi West 5.8 mph - N/A   Clear
9:53 AM 50.0 °F - 17.1 °F 27% 30.24 in 10.0 mi WNW 6.9 mph - N/A   Clear
10:53 AM 57.0 °F - 17.1 °F 21% 30.21 in 10.0 mi West 5.8 mph - N/A   Clear
11:53 AM 60.8 °F - 15.8 °F 17% 30.19 in 10.0 mi SSW 3.5 mph - N/A   Unknown
12:53 PM 64.0 °F - 15.1 °F 15% 30.12 in 10.0 mi Calm Calm - N/A   Clear
1:53 PM 68.0 °F - 15.1 °F 13% 30.07 in 10.0 mi Variable 4.6 mph - N/A   Clear
2:53 PM 68.0 °F - 15.1 °F 13% 30.07 in 10.0 mi SE 8.1 mph - N/A   Clear
3:53 PM 66.9 °F - 10.9 °F 11% 30.07 in 10.0 mi SE 11.5 mph - N/A   Clear
4:53 PM 59.0 °F - 10.9 °F 15% 30.09 in 10.0 mi ESE 6.9 mph - N/A   Clear
5:53 PM 46.9 °F - 8.1 °F 21% 30.14 in 10.0 mi East 6.9 mph - N/A   Clear
6:53 PM 48.0 °F - 12.0 °F 24% 30.15 in 10.0 mi East 10.4 mph - N/A   Clear
7:53 PM 46.9 °F - 12.9 °F 25% 30.12 in 10.0 mi Calm Calm - N/A   Clear
8:53 PM 42.1 °F 38.4 °F 12.0 °F 29% 30.10 in 10.0 mi North 5.8 mph - N/A   Clear
9:53 PM 37.0 °F 31.0 °F 12.9 °F 37% 30.10 in 10.0 mi West 8.1 mph - N/A   Clear
10:53 PM 37.0 °F 31.6 °F 12.0 °F 36% 30.06 in 10.0 mi West 6.9 mph - N/A   Clear
11:53 PM 34.0 °F 31.0 °F 10.9 °F 38% 30.05 in 10.0 mi NNW 3.5 mph - N/A   Clear